Regional Weather Roundup
Issued by NWS

Home | Current Version | Previous Version | Graphics & Text | Print | Product List | Glossary On
Versions: 1 2 3 4 5 6 7 8 9 10 11 12 13 14 15 16 17 18 19 20 21 22 23 24 25 26 27 28 29 30 31 32 33 34 35 36 37 38 39 40 41 42 43 44 45 46 47 48 49 50
000
ASUS43 KBIS 251420
RWRND

NORTH DAKOTA REGIONAL WEATHER ROUNDUP
NATIONAL WEATHER SERVICE BISMARCK ND
900 AM CDT SAT OCT 25 2014

NOTE: "FAIR" INDICATES FEW OR NO CLOUDS BELOW 12,000 FEET WITH NO
SIGNIFICANT WEATHER AND/OR OBSTRUCTIONS TO VISIBILITY.


NDZ001>003-009>011-017-251500-
NORTHWEST NORTH DAKOTA

CITY           SKY/WX    TMP DP  RH WIND       PRES   REMARKS
WILLISTON      CLOUDY    38  31  76 CALM      30.13R
MINOT          CLEAR     36  29  75 SW10      30.11R
MINOT AFB      CLEAR     35  31  85 W8        30.10R
$$

NDZ018>021-031>035-040>046-251500-
SOUTHWEST NORTH DAKOTA

CITY           SKY/WX    TMP DP  RH WIND       PRES   REMARKS
BISMARCK       MOCLDY    41  32  70 CALM      30.16R
DICKINSON      PTCLDY    38  28  67 SW5       30.13R
GARRISON         N/A     38  32  79 CALM      30.13R
HETTINGER ARPT CLEAR     32  27  81 CALM      30.16S
$$

NDZ004>008-012>016-024-026-027-054-251500-
NORTHEAST NORTH DAKOTA

CITY           SKY/WX    TMP DP  RH WIND       PRES   REMARKS
GRAND FORKS    PTCLDY    42  32  67 W9        30.05R
GRND FRKS AFB  CLEAR     43  32  64 NW9       30.06R
DEVILS LAKE    CLEAR     41  30  65 W12       30.07R
$$

NDZ022-023-025-028>030-036>039-047>053-251500-
SOUTHEAST NORTH DAKOTA

CITY           SKY/WX    TMP DP  RH WIND       PRES   REMARKS
FARGO          CLEAR     43  32  65 W12       30.08R
JAMESTOWN      CLOUDY    42  34  73 W8        30.12R
$$




USA.gov is the U.S. government's official web portal to all federal, state and local government web resources and services.